Regional Weather Roundup
Issued by NWS

Home | Current Version | Previous Version | Graphics & Text | Print | Product List | Glossary Off
Versions: 1 2 3 4 5 6 7 8 9 10 11 12 13 14 15 16 17 18 19 20 21 22 23 24 25 26 27 28 29 30 31 32 33 34 35 36 37 38 39 40 41 42 43 44 45 46 47 48 49 50

000
ASUS43 KMKX 101311
RWRWI

WISCONSIN REGIONAL WEATHER ROUNDUP
NATIONAL WEATHER SERVICE MILWAUKEE/SULLIVAN WI
700 AM CST SAT DEC 10 2016

NOTE: "FAIR" INDICATES FEW OR NO CLOUDS BELOW 12,000 FEET WITH NO
SIGNIFICANT WEATHER AND/OR OBSTRUCTIONS TO VISIBILITY.

WIZ001-002-006>008-014>016-023>028-101400-
NORTHWEST WISCONSIN

CITY           SKY/WX    TMP DP  RH WIND       PRES   REMARKS
SUPERIOR ARPT  CLOUDY     6  -3  67 NW6       30.49S WCI  -5
ASHLAND        CLOUDY     6   2  83 W3        30.47S FOG
HAYWARD        CLOUDY     7  -3  64 N3        30.43S
SIREN          CLOUDY    10   1  67 W6        30.46R WCI   0
CUMBERLAND     CLOUDY     9   1  72 W8        30.43R WCI  -4
RICE LAKE      CLOUDY    10   4  76 W6        30.45S WCI   0
CHETEK         CLOUDY     9   4  80 W3        30.45S
LADYSMITH      CLOUDY    10   2  68 NW7       30.44S WCI  -1
EAU CLAIRE     CLOUDY    10   3  73 W8        30.47R WCI  -2
MENOMONIE      CLOUDY    11   3  71 W6        30.48R WCI   1
NEW RICHMOND   CLEAR      3  -1  83 SW5       30.49R WCI  -6
OSCEOLA        CLEAR      4   0  82 W5        30.52R WCI  -5
$$

WIZ003>005-009-010-017-018-101400-
NORTH CENTRAL WISCONSIN

CITY           SKY/WX    TMP DP  RH WIND       PRES   REMARKS
MANITOWISH WTR MOCLDY     3  -2  79 W7        30.37R WCI -10
ARBOR VITAE    CLOUDY     8   1  74 CALM      30.36S
WOODRUFF       CLOUDY     8   1  74 CALM      30.36S
RHINELANDER    CLOUDY     7  -2  66 NW7       30.37R WCI  -5
EAGLE RIVER    CLOUDY     4  -4  69 W5        30.35R WCI  -5
LAND O LAKES   CLOUDY     6   1  78 W6        30.36S WCI  -5
PHILLIPS       CLOUDY     5  -3  69 NW3       30.39S
TOMAHAWK       CLOUDY     7   0  72 NW7       30.40R WCI  -4
MEDFORD        CLOUDY     9   2  74 NW6       30.38S WCI  -1
MERRILL        CLOUDY    10   3  74 N6        30.41S WCI   0
$$

WIZ029-030-035-036-043>047-101400-
CENTRAL WISCONSIN

CITY           SKY/WX    TMP DP  RH WIND       PRES   REMARKS
WAUSAU         CLOUDY    11   4  73 NW10      30.39S WCI  -3
MOSINEE        CLOUDY    10   1  67 W9        30.40F WCI  -2
MARSHFIELD     CLOUDY    11   2  67 NW10      30.40R WCI  -3
STEVENS POINT  CLOUDY    10   1  64 W8        30.42S WCI  -1
WAUPACA        CLOUDY    15  10  79 CALM      30.45R
WAUTOMA        CLEAR      9   6  88 W6          N/A  WCI  -1
WISC RAPIDS    FLURRIES  10   7  87 W8        30.45R WCI  -2
CAMP DOUGLAS   CLEAR      6   2  85 W6        30.46R WCI  -5
$$

WIZ011>013-019>022-031-037>040-048>050-101400-
NORTHEAST WISCONSIN

CITY           SKY/WX    TMP DP  RH WIND       PRES   REMARKS
ANTIGO         CLOUDY     9   3  78 NW10      30.37S WCI  -6
SHAWANO        CLOUDY    17   5  59 W7        30.43S WCI   7
OCONTO         CLOUDY    16   5  62 NW8       30.42S WCI   5
STURGEON BAY   CLOUDY    17   7  64 NW14      30.41S WCI   3
GREEN BAY      FLURRIES  19  10  68 NW13      30.43R WCI   6
MANITOWOC      FLURRIES  17  11  77 W10       30.44S WCI   5
APPLETON       PTCLDY    10   7  85 W6        30.41S WCI   1
CLINTONVILLE   CLOUDY    14   3  62 W7        30.43S WCI   4
OSHKOSH        CLEAR     12   7  80 W5        30.44S WCI   4
$$

WIZ032>034-041-042-053>061-101400-
SOUTHWEST WISCONSIN

CITY           SKY/WX    TMP DP  RH WIND       PRES   REMARKS
LA CROSSE      CLEAR     10   4  76 W6        30.52R WCI   0
SPARTA         PTCLDY     5   2  91 CALM      30.49R
VIROQUA        CLEAR      6   1  81 W5        30.45R WCI  -3
BOSCOBEL       MOCLDY    14   9  80 SW5       30.52R WCI   6
PRAIRIE DU CHI CLOUDY    15   9  75 W6        30.52R WCI   7
PLATTEVILLE    CLOUDY    15  15  98 W3        30.49R
$$

WIZ056-057-062-063-064-067-068-101400-
SOUTH CENTRAL WISCONSIN

CITY           SKY/WX    TMP DP  RH WIND       PRES   REMARKS
REEDSBURG      CLEAR     11   8  87 W6        30.47R WCI   2
BARABOO/DELLS  CLEAR     11   7  86 W3        30.46R
LONE ROCK      MOCLDY    16   8  71 W7        30.50R WCI   6
MINERAL POINT  PTCLDY    12  12 100 W5        30.46R WCI   4
MADISON        PTCLDY    13  10  88 CALM      30.47S
MIDDLETON      CLEAR     14  11  87 W5        30.47R WCI   7
WATERTOWN      PTCLDY    13  11  89 W3        30.47R
MONROE         CLEAR     14  14 100 W7        30.45S WCI   4
JANESVILLE     PTCLDY    18  14  86 W6        30.48S WCI   9
$$

WIZ051-052-058>065-066-070>072-101400-
SOUTHEAST WISCONSIN

CITY           SKY/WX    TMP DP  RH WIND       PRES   REMARKS
MILWAUKEE      PTCLDY    18  12  77 W6        30.47F WCI  10
WAUKESHA       PTCLDY    12   9  85 W7        30.46F WCI   2
MILWAUKEE/TIMM CLEAR     16   9  73 W6        30.47F WCI   7
RACINE         CLEAR     16  11  80 W6        30.49S WCI   7
BURLINGTON     CLEAR     19  16  89 W5        30.47S WCI  12
KENOSHA        CLEAR     16  11  80 W6        30.47F WCI   7
FOND DU LAC    CLEAR     13   6  74 W6        30.45S WCI   4
SHEBOYGAN      CLEAR     13   7  77 W8        30.44S WCI   2
WEST BEND      LGT SNOW  16  14  93 W6        30.45S WCI   7
JUNEAU         PTCLDY    10   8  89 SW5       30.47R WCI   2
$$

LSZ147-162-101400-
LAKE SUPERIOR

STATION/POSITION TIME  TEMP    WIND        PRES    WAVE
                       AIR SEA DIR/SP/G            HT/PER
                 (UTC) (F)     (DEG/KT/KT) (MB)    (FT/S)
DEVILS ISLAND    1200    9     300/ 15/ 19 1033.0R
PORT WING        1240    9     310/ 14/ 19 1032.2S
SAXON HARBOR     1230    8     210/  5/  9 1031.5R
$$

LMZ867-665-643>646-101400-
LAKE MICHIGAN

STATION/POSITION TIME  TEMP    WIND        PRES    WAVE
                       AIR SEA DIR/SP/G            HT/PER
                 (UTC) (F)     (DEG/KT/KT) (MB)    (FT/S)
CHAMBERS ISLAND  1240   15     280/ 10/ 15 1029.1S
NORTHPORT PIER   1255   16     290/ 13/ 24 1029.1S
SISTER BAY       1250   17     300/ 22/ 26   N/A
ALGOMA LAKESHORE 1236          260/  8/ 10   N/A
KEWAUNEE LAKESHO 1242   18     290/  9/ 12 1029.6R
SHEBOYGAN LAKESH 1300   16     260/  9/ 12 1032.3S
PORT WASHINGTON  1230   17     260/  4/  6 1032.8R
KENOSHA   LAKESH 1200   19     280/  6/ 11 1032.2
$$

TC  - TEMPERATURE IN CELSIUS
VSB - VISIBILITY IN STATUTE MILES
WCI - WIND CHILL INDEX
HX  - HEAT INDEX





USA.gov is the U.S. government's official web portal to all federal, state and local government web resources and services.